EDW264 LSZH-LPMA

Flight info

Callsign EDW264
Flight time N/A
Altitude 33000
Route VEBIT T50 ROTOS Z669 ULMES DCT VADAR DCT NINTU/N0457F350 DCT MEBAK DCT REPSI DCT LERGA DCT MINSO DCT NARAK DCT AGN DCT PIPOR DCT PPN DCT MIRPO DCT DGO DCT NEA DCT ARDID DCT FTM DCT NASAS/N0463F370 DCT LIDRO
Aircraft A320/M-SDE2E3FGHIJ1RWXY/LB1

Departure

Time 2026-05-08 07:00
Airport Zürich Airport (LSZH)

Arrival

Time N/A
Airport Cristiano Ronaldo International Airport (LPMA)
Time Latitude Longitude Altitude Speed Heading
2026-05-08 06:17 47.45159 8.55897 1397 ft 0 kts 186°
2026-05-08 06:50 47.45169 8.55898 1397 ft 4 kts 188°
2026-05-08 06:50 47.45196 8.55905 1401 ft 4 kts 194°
2026-05-08 06:50 47.45229 8.55923 1403 ft 4 kts 212°
2026-05-08 06:51 47.45243 8.55939 1408 ft 4 kts 235°
2026-05-08 06:51 47.45249 8.55960 1408 ft 0 kts 276°
2026-05-08 06:54 47.45250 8.55952 1397 ft 4 kts 276°
2026-05-08 06:55 47.45253 8.55902 1400 ft 6 kts 275°
2026-05-08 06:55 47.45258 8.55826 1405 ft 6 kts 276°
2026-05-08 06:55 47.45263 8.55749 1397 ft 12 kts 276°
2026-05-08 06:55 47.45276 8.55603 1402 ft 13 kts 289°
2026-05-08 06:56 47.45366 8.55514 1402 ft 17 kts 334°
2026-05-08 06:56 47.45497 8.55424 1402 ft 21 kts 335°
2026-05-08 06:56 47.45610 8.55347 1400 ft 16 kts 335°
2026-05-08 06:56 47.45670 8.55408 1397 ft 11 kts 93°
2026-05-08 06:57 47.45661 8.55539 1403 ft 15 kts 96°
2026-05-08 06:57 47.45648 8.55725 1400 ft 20 kts 95°
2026-05-08 06:57 47.45635 8.55935 1397 ft 18 kts 94°
2026-05-08 06:57 47.45624 8.56115 1397 ft 25 kts 98°
2026-05-08 06:58 47.45602 8.56375 1402 ft 25 kts 96°
2026-05-08 06:58 47.45584 8.56627 1399 ft 24 kts 96°
2026-05-08 06:58 47.45564 8.56840 1397 ft 20 kts 98°
2026-05-08 06:58 47.45584 8.57013 1399 ft 16 kts 29°
2026-05-08 06:59 47.45663 8.56975 1401 ft 9 kts 288°
2026-05-08 06:59 47.45670 8.56909 1399 ft 4 kts 278°
2026-05-08 06:59 47.45676 8.56841 1407 ft 21 kts 277°
2026-05-08 06:59 47.45712 8.56311 1399 ft 81 kts 276°
2026-05-08 07:00 47.45791 8.55194 1403 ft 137 kts 276°
2026-05-08 07:00 47.45901 8.53579 1701 ft 166 kts 276°
2026-05-08 07:00 47.46005 8.51914 2558 ft 163 kts 277°
2026-05-08 07:00 47.46144 8.50213 3223 ft 170 kts 276°
2026-05-08 07:01 47.46009 8.48469 3854 ft 176 kts 240°
2026-05-08 07:01 47.45247 8.47023 4495 ft 181 kts 229°
2026-05-08 07:01 47.44454 8.45501 5007 ft 198 kts 233°
2026-05-08 07:01 47.43573 8.43687 5145 ft 231 kts 233°
2026-05-08 07:02 47.42580 8.41709 5738 ft 249 kts 233°
2026-05-08 07:02 47.41499 8.39601 6410 ft 264 kts 233°
2026-05-08 07:02 47.40386 8.37409 7035 ft 267 kts 233°
2026-05-08 07:02 47.39286 8.35227 7651 ft 270 kts 234°
2026-05-08 07:03 47.38316 8.32814 8307 ft 270 kts 243°
2026-05-08 07:03 47.37463 8.30339 8959 ft 271 kts 243°
2026-05-08 07:03 47.36596 8.27905 9612 ft 271 kts 242°
2026-05-08 07:03 47.35704 8.25438 10257 ft 273 kts 242°
2026-05-08 07:04 47.34819 8.22951 10871 ft 276 kts 243°
2026-05-08 07:04 47.33918 8.20398 11405 ft 283 kts 242°
2026-05-08 07:04 47.32977 8.17754 11556 ft 303 kts 242°
2026-05-08 07:04 47.31963 8.14916 11628 ft 324 kts 242°
2026-05-08 07:05 47.30878 8.11873 11661 ft 345 kts 242°
2026-05-08 07:05 47.29738 8.08660 11836 ft 359 kts 242°
2026-05-08 07:05 47.28584 8.05412 12567 ft 357 kts 242°
2026-05-08 07:05 47.27421 8.02152 13010 ft 364 kts 242°
2026-05-08 07:06 47.26349 7.98763 13532 ft 366 kts 248°
2026-05-08 07:06 47.25381 7.95226 14024 ft 370 kts 248°
2026-05-08 07:06 47.24389 7.91711 14483 ft 373 kts 247°
2026-05-08 07:06 47.23389 7.88187 14958 ft 375 kts 247°
2026-05-08 07:07 47.22869 7.86334 15192 ft 376 kts 247°
2026-05-08 07:07 47.21872 7.82757 15642 ft 379 kts 247°
2026-05-08 07:08 47.20865 7.79168 16099 ft 381 kts 247°
2026-05-08 07:08 47.19846 7.75559 16527 ft 383 kts 247°
2026-05-08 07:08 47.18691 7.72008 16951 ft 385 kts 236°
2026-05-08 07:08 47.17058 7.68881 17376 ft 387 kts 231°
2026-05-08 07:09 47.15361 7.65799 17781 ft 389 kts 231°
2026-05-08 07:09 47.13677 7.62685 18183 ft 391 kts 231°
2026-05-08 07:09 47.11991 7.59534 18547 ft 393 kts 231°
2026-05-08 07:09 47.10289 7.56379 18899 ft 394 kts 231°
2026-05-08 07:10 47.08575 7.53231 19245 ft 396 kts 231°
2026-05-08 07:10 47.06854 7.50062 19575 ft 397 kts 231°
2026-05-08 07:10 47.05150 7.46913 19909 ft 399 kts 231°
2026-05-08 07:10 47.03423 7.43728 20201 ft 400 kts 231°
2026-05-08 07:11 47.01680 7.40533 20519 ft 401 kts 231°
2026-05-08 07:11 46.99987 7.37442 20828 ft 403 kts 231°
2026-05-08 07:11 46.98227 7.34234 21129 ft 404 kts 231°
2026-05-08 07:11 46.96462 7.31015 21442 ft 405 kts 231°
2026-05-08 07:12 46.94702 7.27804 21735 ft 406 kts 231°
2026-05-08 07:12 46.92922 7.24557 22001 ft 408 kts 231°
2026-05-08 07:12 46.91141 7.21304 22278 ft 410 kts 231°
2026-05-08 07:12 46.89356 7.18048 22563 ft 411 kts 231°
2026-05-08 07:13 46.87559 7.14783 22821 ft 412 kts 231°
2026-05-08 07:13 46.85757 7.11512 23083 ft 414 kts 231°
2026-05-08 07:13 46.83952 7.08232 23333 ft 415 kts 231°
2026-05-08 07:13 46.82139 7.04945 23572 ft 416 kts 231°
2026-05-08 07:14 46.80316 7.01646 23797 ft 417 kts 231°
2026-05-08 07:14 46.78494 6.98350 24016 ft 417 kts 231°
2026-05-08 07:14 46.76668 6.95053 24230 ft 418 kts 231°
2026-05-08 07:14 46.74839 6.91751 24454 ft 418 kts 231°
2026-05-08 07:15 46.72986 6.88412 24650 ft 419 kts 231°
2026-05-08 07:15 46.71172 6.85149 24854 ft 419 kts 231°
2026-05-08 07:15 46.69333 6.81841 25040 ft 419 kts 231°
2026-05-08 07:15 46.67490 6.78532 25235 ft 420 kts 231°
2026-05-08 07:16 46.65672 6.75199 25447 ft 419 kts 235°
2026-05-08 07:16 46.64116 6.71595 25607 ft 420 kts 239°
2026-05-08 07:16 46.62631 6.67928 25774 ft 420 kts 239°
2026-05-08 07:16 46.61125 6.64272 25962 ft 420 kts 238°
2026-05-08 07:17 46.59586 6.60634 26135 ft 421 kts 238°
2026-05-08 07:17 46.58052 6.56997 26309 ft 421 kts 238°
2026-05-08 07:17 46.56535 6.53350 26479 ft 421 kts 239°
2026-05-08 07:17 46.55014 6.49700 26640 ft 422 kts 238°
2026-05-08 07:18 46.53485 6.46070 26772 ft 422 kts 238°
2026-05-08 07:18 46.51946 6.42422 26926 ft 423 kts 238°
2026-05-08 07:18 46.50411 6.38770 27058 ft 423 kts 238°
2026-05-08 07:18 46.48876 6.35120 27203 ft 424 kts 238°
2026-05-08 07:19 46.47333 6.31465 27333 ft 424 kts 238°
2026-05-08 07:19 46.45787 6.27813 27475 ft 424 kts 238°
2026-05-08 07:19 46.44245 6.24167 27617 ft 424 kts 238°
2026-05-08 07:19 46.42700 6.20515 27750 ft 425 kts 238°
2026-05-08 07:20 46.41167 6.16902 27904 ft 424 kts 238°
2026-05-08 07:20 46.39602 6.13220 28091 ft 423 kts 238°
2026-05-08 07:20 46.38078 6.09637 28282 ft 422 kts 238°
2026-05-08 07:20 46.36533 6.06010 28430 ft 422 kts 238°
2026-05-08 07:21 46.34995 6.02402 28639 ft 420 kts 238°
2026-05-08 07:21 46.33462 5.98813 28776 ft 420 kts 238°
2026-05-08 07:21 46.31921 5.95208 28959 ft 419 kts 238°
2026-05-08 07:21 46.30386 5.91623 29143 ft 418 kts 238°
2026-05-08 07:22 46.28854 5.88050 29313 ft 418 kts 238°
2026-05-08 07:22 46.27842 5.85691 29421 ft 417 kts 238°
2026-05-08 07:22 46.26313 5.82132 29595 ft 416 kts 238°
2026-05-08 07:22 46.24783 5.78575 29780 ft 415 kts 238°
2026-05-08 07:23 46.23260 5.75039 29949 ft 414 kts 238°
2026-05-08 07:23 46.21734 5.71499 30101 ft 414 kts 238°
2026-05-08 07:23 46.20212 5.67974 30210 ft 414 kts 238°
2026-05-08 07:23 46.18683 5.64438 30293 ft 414 kts 238°
2026-05-08 07:24 46.15623 5.57373 30478 ft 415 kts 238°
2026-05-08 07:24 46.12382 5.50451 30645 ft 416 kts 235°
2026-05-08 07:25 46.09110 5.43560 30814 ft 417 kts 235°
2026-05-08 07:25 46.05792 5.36689 31000 ft 418 kts 235°
2026-05-08 07:26 46.04137 5.33250 31084 ft 418 kts 235°
2026-05-08 07:26 46.00842 5.26405 31266 ft 419 kts 235°
2026-05-08 07:26 45.99174 5.22958 31367 ft 419 kts 235°
2026-05-08 07:27 45.97506 5.19515 31458 ft 420 kts 235°
2026-05-08 07:27 45.95835 5.16061 31561 ft 420 kts 235°
2026-05-08 07:27 45.94160 5.12606 31661 ft 420 kts 235°
2026-05-08 07:28 45.90788 5.05671 31859 ft 421 kts 235°
2026-05-08 07:28 45.87450 4.98816 32042 ft 422 kts 235°
2026-05-08 07:28 45.85764 4.95360 32145 ft 422 kts 235°
2026-05-08 07:29 45.84075 4.91907 32227 ft 423 kts 235°
2026-05-08 07:29 45.80689 4.84987 32418 ft 424 kts 235°
2026-05-08 07:30 45.77288 4.78058 32610 ft 424 kts 235°
2026-05-08 07:30 45.75587 4.74595 32719 ft 425 kts 235°
2026-05-08 07:30 45.73907 4.71179 32807 ft 425 kts 235°
2026-05-08 07:31 45.70462 4.64200 32972 ft 426 kts 235°
2026-05-08 07:31 45.67043 4.57274 32983 ft 431 kts 235°
2026-05-08 07:32 45.63560 4.50245 33092 ft 433 kts 235°
2026-05-08 07:32 45.61816 4.46731 33200 ft 433 kts 235°
2026-05-08 07:32 45.60071 4.43216 33290 ft 433 kts 235°
2026-05-08 07:33 45.56572 4.36189 33465 ft 434 kts 235°
2026-05-08 07:33 45.54814 4.32665 33580 ft 434 kts 236°
2026-05-08 07:33 45.53059 4.29148 33681 ft 434 kts 236°
2026-05-08 07:34 45.49544 4.22127 33878 ft 435 kts 236°
2026-05-08 07:34 45.46044 4.15155 34045 ft 435 kts 236°
2026-05-08 07:35 45.42506 4.08124 34213 ft 436 kts 236°
2026-05-08 07:35 45.38964 4.01103 34377 ft 435 kts 236°
2026-05-08 07:36 45.35427 3.94110 34553 ft 435 kts 236°
2026-05-08 07:36 45.33657 3.90616 34656 ft 435 kts 236°
2026-05-08 07:36 45.31887 3.87125 34728 ft 435 kts 236°
2026-05-08 07:36 45.30115 3.83637 34831 ft 435 kts 236°
2026-05-08 07:37 45.28337 3.80142 34934 ft 435 kts 236°
2026-05-08 07:37 45.24833 3.73130 35047 ft 436 kts 238°
2026-05-08 07:38 45.21321 3.66073 35043 ft 436 kts 237°
2026-05-08 07:38 45.17880 3.59077 35041 ft 434 kts 238°
2026-05-08 07:39 45.14412 3.52057 35037 ft 434 kts 237°
2026-05-08 07:39 45.10937 3.45054 35029 ft 434 kts 238°
2026-05-08 07:40 45.07473 3.38073 35021 ft 433 kts 238°
2026-05-08 07:40 45.04004 3.31110 35011 ft 433 kts 238°
2026-05-08 07:41 45.00523 3.24135 35008 ft 432 kts 238°
2026-05-08 07:41 44.97049 3.17193 35012 ft 432 kts 238°
2026-05-08 07:42 44.93596 3.10307 35008 ft 432 kts 238°
2026-05-08 07:42 44.90121 3.03398 35005 ft 431 kts 238°
2026-05-08 07:43 44.86637 2.96484 35000 ft 432 kts 238°
2026-05-08 07:43 44.83273 2.89471 35002 ft 430 kts 241°
2026-05-08 07:44 44.80001 2.82422 34999 ft 430 kts 240°
2026-05-08 07:44 44.76754 2.75358 35000 ft 429 kts 241°
2026-05-08 07:45 44.73518 2.68367 34998 ft 429 kts 241°
2026-05-08 07:45 44.70252 2.61322 34991 ft 427 kts 241°
2026-05-08 07:46 44.66994 2.54308 35003 ft 427 kts 241°
2026-05-08 07:46 44.63757 2.47365 35002 ft 428 kts 241°
2026-05-08 07:47 44.60499 2.40383 34996 ft 426 kts 242°
2026-05-08 07:47 44.57240 2.33424 34997 ft 426 kts 242°
2026-05-08 07:48 44.53976 2.26466 35001 ft 425 kts 242°
2026-05-08 07:48 44.50722 2.19551 34994 ft 424 kts 242°
2026-05-08 07:49 44.47474 2.12659 34988 ft 423 kts 242°
2026-05-08 07:49 44.44248 2.05834 34984 ft 422 kts 242°
2026-05-08 07:50 44.41004 1.98988 34972 ft 421 kts 242°
2026-05-08 07:50 44.37766 1.92165 34973 ft 420 kts 242°
2026-05-08 07:51 44.34521 1.85351 34971 ft 420 kts 242°
2026-05-08 07:51 44.31284 1.78565 34973 ft 419 kts 242°
2026-05-08 07:52 44.28116 1.71740 34969 ft 417 kts 243°
2026-05-08 07:52 44.24967 1.64974 34969 ft 417 kts 242°
2026-05-08 07:53 44.21843 1.58145 34971 ft 417 kts 243°
2026-05-08 07:53 44.18697 1.51336 34966 ft 417 kts 242°
2026-05-08 07:54 44.15563 1.44550 34968 ft 416 kts 242°
2026-05-08 07:54 44.12956 1.38920 34967 ft 416 kts 242°
2026-05-08 07:55 44.09811 1.32148 34969 ft 416 kts 242°
2026-05-08 07:55 44.06670 1.25396 34965 ft 416 kts 241°
2026-05-08 07:56 44.03517 1.18636 34963 ft 416 kts 241°
2026-05-08 07:56 44.00375 1.11912 34961 ft 416 kts 241°
2026-05-08 07:57 43.97217 1.05173 34959 ft 416 kts 241°
2026-05-08 07:57 43.94068 0.98464 34961 ft 416 kts 240°
2026-05-08 07:58 43.90905 0.91746 34958 ft 416 kts 240°
2026-05-08 07:58 43.87811 0.84959 34959 ft 414 kts 243°
2026-05-08 07:59 43.84847 0.78074 34963 ft 415 kts 242°
2026-05-08 07:59 43.81904 0.71244 34963 ft 415 kts 242°
2026-05-08 08:00 43.78946 0.64383 34955 ft 415 kts 242°
2026-05-08 08:00 43.75976 0.57524 34958 ft 415 kts 242°
2026-05-08 08:01 43.73008 0.50675 34947 ft 414 kts 242°
2026-05-08 08:01 43.70054 0.43881 34954 ft 414 kts 242°
2026-05-08 08:02 43.67078 0.37051 34954 ft 415 kts 241°
2026-05-08 08:02 43.64089 0.30209 34945 ft 415 kts 241°
2026-05-08 08:03 43.61104 0.23386 34942 ft 415 kts 241°
2026-05-08 08:03 43.58108 0.16561 34941 ft 415 kts 241°
2026-05-08 08:04 43.55125 0.09778 34938 ft 416 kts 240°
2026-05-08 08:04 43.52114 0.02948 34949 ft 415 kts 240°
2026-05-08 08:05 43.49107 -0.03857 34944 ft 416 kts 240°
2026-05-08 08:05 43.46105 -0.10634 34945 ft 416 kts 240°
2026-05-08 08:06 43.43082 -0.17445 34944 ft 417 kts 240°
2026-05-08 08:06 43.40052 -0.24253 34942 ft 417 kts 239°
2026-05-08 08:07 43.37015 -0.31061 34946 ft 417 kts 239°
2026-05-08 08:07 43.33984 -0.37842 34938 ft 416 kts 239°
2026-05-08 08:08 43.30966 -0.44577 34941 ft 416 kts 239°
2026-05-08 08:08 43.27925 -0.51346 34936 ft 416 kts 239°
2026-05-08 08:09 43.24873 -0.58128 34935 ft 417 kts 238°
2026-05-08 08:09 43.21817 -0.64901 34937 ft 417 kts 238°
2026-05-08 08:10 43.18777 -0.71621 34932 ft 417 kts 238°
2026-05-08 08:10 43.15692 -0.78425 34934 ft 417 kts 238°
2026-05-08 08:11 43.12643 -0.85136 34933 ft 417 kts 238°
2026-05-08 08:11 43.09576 -0.91875 34940 ft 417 kts 238°
2026-05-08 08:12 43.06503 -0.98602 34939 ft 417 kts 237°
2026-05-08 08:12 43.03428 -1.05328 34947 ft 416 kts 237°
2026-05-08 08:13 43.00367 -1.12003 34951 ft 416 kts 237°
2026-05-08 08:13 42.97286 -1.18704 34953 ft 416 kts 237°
2026-05-08 08:14 42.94197 -1.25406 34951 ft 416 kts 237°
2026-05-08 08:14 42.91128 -1.32051 34957 ft 416 kts 237°
2026-05-08 08:15 42.88036 -1.38730 34968 ft 416 kts 236°
2026-05-08 08:15 42.84948 -1.45386 34971 ft 416 kts 236°
2026-05-08 08:16 42.81847 -1.52056 34974 ft 417 kts 236°
2026-05-08 08:16 42.78736 -1.58730 34974 ft 417 kts 236°
2026-05-08 08:17 42.75624 -1.65393 34972 ft 417 kts 236°
2026-05-08 08:17 42.72894 -1.72297 34986 ft 421 kts 250°
2026-05-08 08:18 42.71192 -1.79952 34968 ft 423 kts 250°
2026-05-08 08:18 42.69459 -1.87589 34969 ft 423 kts 250°
2026-05-08 08:19 42.67729 -1.95265 34971 ft 425 kts 250°
2026-05-08 08:19 42.65984 -2.02939 34980 ft 425 kts 250°
2026-05-08 08:20 42.64230 -2.10643 34973 ft 427 kts 250°
2026-05-08 08:20 42.62470 -2.18302 34971 ft 427 kts 249°
2026-05-08 08:21 42.60581 -2.25951 34978 ft 427 kts 249°
2026-05-08 08:21 42.58732 -2.33643 34971 ft 428 kts 249°
2026-05-08 08:22 42.56853 -2.41314 34967 ft 429 kts 248°
2026-05-08 08:22 42.54991 -2.48951 34972 ft 429 kts 249°
2026-05-08 08:23 42.53104 -2.56638 34976 ft 428 kts 248°
2026-05-08 08:23 42.51215 -2.64316 34964 ft 429 kts 248°
2026-05-08 08:24 42.49334 -2.71939 34951 ft 429 kts 248°
2026-05-08 08:24 42.47432 -2.79613 34948 ft 430 kts 248°
2026-05-08 08:25 42.45519 -2.87303 34948 ft 430 kts 247°
2026-05-08 08:25 42.43088 -2.94676 34947 ft 428 kts 241°
2026-05-08 08:26 42.40604 -3.01975 34948 ft 429 kts 242°
2026-05-08 08:26 42.38102 -3.09324 34945 ft 429 kts 241°
2026-05-08 08:27 42.35607 -3.16605 34949 ft 429 kts 242°
2026-05-08 08:27 42.33102 -3.23926 34946 ft 429 kts 241°
2026-05-08 08:28 42.30578 -3.31253 34944 ft 429 kts 241°
2026-05-08 08:28 42.28079 -3.38518 34945 ft 429 kts 241°
2026-05-08 08:29 42.25551 -3.45820 34949 ft 429 kts 241°
2026-05-08 08:29 42.23016 -3.53144 34946 ft 429 kts 240°
2026-05-08 08:30 42.20477 -3.60447 34945 ft 430 kts 240°
2026-05-08 08:30 42.16671 -3.71367 34944 ft 430 kts 240°
2026-05-08 08:31 42.14112 -3.78684 34942 ft 431 kts 240°
2026-05-08 08:31 42.11566 -3.85948 34939 ft 431 kts 240°
2026-05-08 08:32 42.08994 -3.93261 34940 ft 432 kts 240°
2026-05-08 08:32 42.06413 -4.00586 34942 ft 433 kts 240°
2026-05-08 08:33 42.03825 -4.07910 34937 ft 433 kts 239°
2026-05-08 08:33 42.01137 -4.15106 34937 ft 432 kts 238°
2026-05-08 08:34 41.98437 -4.22360 34927 ft 433 kts 238°
2026-05-08 08:34 41.95684 -4.29519 34932 ft 434 kts 238°
2026-05-08 08:35 41.92938 -4.36756 34935 ft 434 kts 238°
2026-05-08 08:35 41.90167 -4.43981 34936 ft 434 kts 237°
2026-05-08 08:36 41.87871 -4.49975 34933 ft 435 kts 237°
2026-05-08 08:36 41.84631 -4.58405 34923 ft 437 kts 237°
2026-05-08 08:37 41.82312 -4.64424 34926 ft 437 kts 237°
2026-05-08 08:37 41.79510 -4.71683 34923 ft 438 kts 237°
2026-05-08 08:38 41.76697 -4.78949 34918 ft 438 kts 237°
2026-05-08 08:38 41.73897 -4.86160 34919 ft 440 kts 237°
2026-05-08 08:39 41.71057 -4.93462 34919 ft 441 kts 237°
2026-05-08 08:39 41.68205 -5.00773 34919 ft 442 kts 237°
2026-05-08 08:40 41.65363 -5.08042 34918 ft 444 kts 237°
2026-05-08 08:40 41.62493 -5.15363 34921 ft 445 kts 237°
2026-05-08 08:41 41.59609 -5.22699 34919 ft 446 kts 237°
2026-05-08 08:41 41.56713 -5.30052 34920 ft 447 kts 237°
2026-05-08 08:42 41.53826 -5.37359 34919 ft 448 kts 237°
2026-05-08 08:42 41.50887 -5.44783 34919 ft 450 kts 237°
2026-05-08 08:43 41.47970 -5.52131 34921 ft 451 kts 237°
2026-05-08 08:43 41.45028 -5.59525 34922 ft 451 kts 237°
2026-05-08 08:44 41.42080 -5.66913 34921 ft 451 kts 237°
2026-05-08 08:44 41.39127 -5.74296 34922 ft 451 kts 237°
2026-05-08 08:45 41.36190 -5.81620 34921 ft 451 kts 237°
2026-05-08 08:45 41.33230 -5.88985 34925 ft 451 kts 237°
2026-05-08 08:46 41.30259 -5.96359 34923 ft 451 kts 237°
2026-05-08 08:46 41.27295 -6.03696 34919 ft 449 kts 237°
2026-05-08 08:47 41.24329 -6.11019 34919 ft 449 kts 237°
2026-05-08 08:47 41.21357 -6.18339 34911 ft 449 kts 237°
2026-05-08 08:48 41.18392 -6.25625 34920 ft 448 kts 237°
2026-05-08 08:48 41.16746 -6.29120 34928 ft 440 kts 226°
2026-05-08 08:48 41.14741 -6.32180 34904 ft 439 kts 224°
2026-05-08 08:49 41.10737 -6.38229 34912 ft 439 kts 224°
2026-05-08 08:49 41.06719 -6.44329 34916 ft 438 kts 224°
2026-05-08 08:50 41.02687 -6.50412 34912 ft 438 kts 224°
2026-05-08 08:50 40.98698 -6.56436 34916 ft 438 kts 224°
2026-05-08 08:51 40.94664 -6.62502 34915 ft 438 kts 224°
2026-05-08 08:51 40.90633 -6.68563 34913 ft 438 kts 224°
2026-05-08 08:52 40.86608 -6.74595 34911 ft 437 kts 224°
2026-05-08 08:52 40.82580 -6.80623 34912 ft 437 kts 225°
2026-05-08 08:53 40.78555 -6.86632 34914 ft 437 kts 225°
2026-05-08 08:53 40.74557 -6.92591 34919 ft 436 kts 225°
2026-05-08 08:54 40.70531 -6.98578 34923 ft 436 kts 225°
2026-05-08 08:54 40.66500 -7.04563 34919 ft 436 kts 225°
2026-05-08 08:55 40.62466 -7.10540 34927 ft 435 kts 225°
2026-05-08 08:55 40.58455 -7.16470 34925 ft 436 kts 225°
2026-05-08 08:56 40.54416 -7.22430 34927 ft 436 kts 225°
2026-05-08 08:56 40.50383 -7.28371 34927 ft 434 kts 225°
2026-05-08 08:57 40.46352 -7.34297 34925 ft 434 kts 226°
2026-05-08 08:57 40.42327 -7.40202 34930 ft 434 kts 226°
2026-05-08 08:58 40.38323 -7.46065 34938 ft 433 kts 226°
2026-05-08 08:58 40.34308 -7.51932 34934 ft 431 kts 226°
2026-05-08 08:59 40.30302 -7.57777 34933 ft 430 kts 226°
2026-05-08 08:59 40.26287 -7.63621 34931 ft 430 kts 226°
2026-05-08 09:00 40.22315 -7.69392 34940 ft 429 kts 227°
2026-05-08 09:00 40.18321 -7.75185 34934 ft 428 kts 227°
2026-05-08 09:01 40.14334 -7.80956 34943 ft 427 kts 227°
2026-05-08 09:01 40.10352 -7.86708 34931 ft 426 kts 227°
2026-05-08 09:02 40.06373 -7.92447 34937 ft 425 kts 227°
2026-05-08 09:02 40.02428 -7.98125 34932 ft 424 kts 228°
2026-05-08 09:03 39.98461 -8.03825 34937 ft 423 kts 228°
2026-05-08 09:03 39.94513 -8.09486 34939 ft 422 kts 228°
2026-05-08 09:04 39.90558 -8.15148 34937 ft 420 kts 228°
2026-05-08 09:04 39.86639 -8.20746 34933 ft 419 kts 228°
2026-05-08 09:05 39.82713 -8.26346 34943 ft 418 kts 228°
2026-05-08 09:05 39.78783 -8.31943 34943 ft 419 kts 228°
2026-05-08 09:06 39.74849 -8.37530 34938 ft 418 kts 228°
2026-05-08 09:06 39.70943 -8.43072 34938 ft 417 kts 228°
2026-05-08 09:07 39.67013 -8.48635 34939 ft 416 kts 228°
2026-05-08 09:07 39.63138 -8.54194 34940 ft 416 kts 229°
2026-05-08 09:08 39.59294 -8.59747 34936 ft 415 kts 228°
2026-05-08 09:08 39.55418 -8.65299 34933 ft 413 kts 229°
2026-05-08 09:09 39.51589 -8.70796 34935 ft 412 kts 229°
2026-05-08 09:09 39.47740 -8.76299 34939 ft 412 kts 229°
2026-05-08 09:10 39.43880 -8.81816 34932 ft 411 kts 229°
2026-05-08 09:10 39.40037 -8.87294 34938 ft 410 kts 229°
2026-05-08 09:11 39.36222 -8.92725 34940 ft 410 kts 229°
2026-05-08 09:11 39.32382 -8.98180 34929 ft 409 kts 229°
2026-05-08 09:12 39.28527 -9.03648 34929 ft 409 kts 229°
2026-05-08 09:12 39.24718 -9.09041 34923 ft 407 kts 229°
2026-05-08 09:13 39.20902 -9.14435 34922 ft 407 kts 229°
2026-05-08 09:13 39.17088 -9.19817 34923 ft 406 kts 229°
2026-05-08 09:14 39.13276 -9.25186 34916 ft 405 kts 229°
2026-05-08 09:14 39.09479 -9.30525 34915 ft 404 kts 229°